DW4736 Weather Reports


Display with metric or nautical units.
time (UTC)temp
F
wind
direction
speed
MPH
gust
MPH
rain 1hr
in
rain 24hr
in
rain mn
in
humidity
%
barometer
mb
20260510214538 52 8 0.0 0.0 0.00 0.00 0.00 94 1007.6
20260510214037 52 8 0.0 0.0 0.00 0.00 0.00 94 1007.6
20260510213537 52 8 0.0 0.0 0.00 0.00 0.00 94 1007.7
20260510213041 52 8 0.0 0.0 0.00 0.00 0.00 93 1007.8
20260510212538 52 8 0.0 0.0 0.00 0.00 0.00 94 1007.9
20260510212520 52 8 0.0 0.0 0.00 0.00 0.00 94 1007.9
20260510212449 52 8 0.0 0.0 0.00 0.00 0.00 93 1007.9
20260510211035 53 8 0.0 0.0 0.00 0.00 0.00 93 1007.9
20260510210533 53 8 0.0 0.0 0.00 0.00 0.00 93 1008.1
20260510210034 53 8 0.0 0.0 0.00 0.00 0.00 93 1008.0
20260510205533 53 8 0.0 0.0 0.00 0.00 0.00 93 1008.1
20260510205033 53 8 0.0 0.0 0.00 0.00 0.00 93 1008.2
20260510204533 53 8 0.0 0.0 0.00 0.00 0.00 93 1008.3
20260510204036 53 8 0.0 0.0 0.00 0.00 0.00 92 1008.4
20260510203531 53 8 0.0 0.0 0.00 0.00 0.00 92 1008.5
20260510203456 54 8 0.0 0.0 0.00 0.00 0.00 92 1008.5
20260510202953 54 8 0.0 0.0 0.00 0.00 0.00 92 1008.5
20260510202034 54 8 0.0 0.0 0.00 0.00 0.00 92 1008.5
20260510201651 54 8 0.0 0.0 0.00 0.00 0.00 92 1008.5
20260510201547 54 8 0.0 0.0 0.00 0.00 0.00 92 1008.6
20260510201534 54 8 0.0 0.0 0.00 0.00 0.00 92 1008.5
20260510200051 54 8 0.0 0.0 0.00 0.00 0.00 92 1008.8
20260510195528 54 8 0.0 0.0 0.00 0.00 0.00 92 1008.6
20260510195029 55 8 0.0 0.0 0.00 0.00 0.00 92 1008.6
20260510194528 55 8 0.0 0.0 0.00 0.00 0.00 91 1008.6
20260510194029 55 8 0.0 0.0 0.00 0.00 0.00 91 1008.7
20260510193528 55 8 0.0 0.0 0.00 0.00 0.00 91 1008.8
20260510193029 55 8 0.0 0.0 0.00 0.00 0.00 91 1008.8
20260510192943 56 8 0.0 0.0 0.00 0.00 0.00 90 1008.6
20260510192025 56 8 0.0 0.0 0.00 0.00 0.00 90 1008.7
20260510191523 56 8 0.0 0.0 0.00 0.00 0.00 90 1008.8
20260510191021 57 8 0.0 0.0 0.00 0.00 0.00 90 1008.7
20260510190522 57 8 0.0 0.0 0.00 0.00 0.00 90 1008.8
20260510190030 57 8 0.0 0.0 0.00 0.00 0.00 89 1008.7
20260510185522 57 8 0.0 0.0 0.00 0.00 0.00 89 1008.7
20260510185023 58 8 0.0 0.0 0.00 0.00 0.00 89 1008.7
20260510184520 58 8 0.0 0.0 0.00 0.00 0.00 88 1008.6
20260510184020 58 8 0.0 0.0 0.00 0.00 0.00 87 1008.7
20260510183518 58 8 0.0 0.0 0.00 0.00 0.00 87 1008.6
20260510183421 59 8 0.0 0.0 0.00 0.00 0.00 86 1008.4
20260510183220 59 8 0.0 0.0 0.00 0.00 0.00 86 1008.6
20260510181525 60 8 0.0 0.0 0.00 0.00 0.00 84 1008.4
20260510181439 61 8 0.0 0.0 0.00 0.00 0.00 83 1008.4
20260510180522 61 8 0.0 0.0 0.00 0.00 0.00 83 1008.5
20260510180040 62 8 0.0 0.0 0.00 0.00 0.00 82 1008.5
20260510175944 62 8 0.0 0.0 0.00 0.00 0.00 80 1008.5
20260510175026 62 8 0.0 0.0 0.00 0.00 0.00 79 1008.6
20260510174525 63 8 0.0 0.0 0.00 0.00 0.00 78 1008.6
20260510174026 63 8 0.0 0.0 0.00 0.00 0.00 77 1008.6
20260510173531 64 8 0.0 0.0 0.00 0.00 0.00 76 1008.7
20260510173502 64 8 0.0 0.0 0.00 0.00 0.00 75 1008.8
20260510172528 65 8 0.0 0.0 0.00 0.00 0.00 74 1008.7
20260510172029 65 8 0.0 0.0 0.00 0.00 0.00 73 1008.8
20260510171531 66 8 0.0 0.0 0.00 0.00 0.00 70 1008.9
20260510171029 67 8 0.0 0.0 0.00 0.00 0.00 67 1008.9
20260510170517 68 8 0.0 0.0 0.00 0.00 0.00 64 1009.0
20260510170040 69 8 0.0 0.0 0.00 0.00 0.00 59 1009.1
20260510170002 70 8 0.0 0.0 0.00 0.00 0.00 59 1009.1
20260510165029 70 8 0.0 0.0 0.00 0.00 0.00 54 1009.2
20260510164527 70 8 0.0 0.0 0.00 0.00 0.00 54 1009.3
20260510164021 70 8 0.0 0.0 0.00 0.00 0.00 52 1009.3
20260510163520 70 18 0.0 0.0 0.00 0.00 0.00 53 1009.4
20260510163024 70 18 0.0 0.0 0.00 0.00 0.00 54 1009.5
20260510162528 71 18 0.0 0.0 0.00 0.00 0.00 53 1009.5
20260510162019 70 18 0.0 0.0 0.00 0.00 0.00 52 1009.5
20260510161627 70 18 0.0 0.0 0.00 0.00 0.00 54 1009.8
20260510161539 70 18 0.0 0.0 0.00 0.00 0.00 56 1009.7
20260510160521 70 18 0.0 0.0 0.00 0.00 0.00 59 1009.8
20260510160024 70 18 0.0 0.0 0.00 0.00 0.00 57 1009.9
20260510155510 70 18 0.0 0.0 0.00 0.00 0.00 54 1009.9
20260510155022 70 18 0.0 0.0 0.00 0.00 0.00 52 1010.0
20260510154954 70 18 0.0 0.0 0.00 0.00 0.00 55 1010.0
20260510154016 70 18 0.0 0.0 0.00 0.00 0.00 53 1010.0
20260510153515 71 18 0.0 0.0 0.00 0.00 0.00 52 1010.1
20260510153016 71 18 0.0 0.0 0.00 0.00 0.00 51 1010.2
20260510152514 71 24 0.0 0.0 0.00 0.00 0.00 52 1010.3
20260510152018 71 24 0.0 0.0 0.00 0.00 0.00 55 1010.3
20260510151538 71 24 0.0 0.0 0.00 0.00 0.00 51 1010.3
20260510151517 71 24 0.0 0.0 0.00 0.00 0.00 53 1010.3
20260510150512 71 24 0.0 0.0 0.00 0.00 0.00 50 1010.3
20260510150005 71 24 0.0 0.0 0.00 0.00 0.00 51 1010.4
20260510145501 71 24 0.0 0.0 0.00 0.00 0.00 50 1010.5
20260510145008 71 24 0.0 0.0 0.00 0.00 0.00 51 1010.5
20260510144500 71 24 0.0 0.0 0.00 0.00 0.00 53 1010.6
20260510144001 71 14 0.0 0.0 0.00 0.00 0.00 53 1010.6
20260510143501 71 14 0.0 0.0 0.00 0.00 0.00 50 1010.8
20260510143004 70 14 0.0 0.0 0.00 0.00 0.00 49 1010.7
20260510142502 71 14 0.0 0.0 0.00 0.00 0.00 50 1010.7
20260510142001 71 14 0.0 0.0 0.00 0.00 0.00 48 1010.7
20260510141653 72 17 0.0 0.0 0.00 0.00 0.00 50 1010.8
20260510141639 72 17 0.0 0.0 0.00 0.00 0.00 50 1010.9
20260510141521 71 14 0.0 0.0 0.00 0.00 0.00 51 1010.8
20260510140000 71 1 0.0 0.0 0.00 0.00 0.00 50 1010.9
20260510135502 72 1 0.0 0.0 0.00 0.00 0.00 49 1011.0
20260510134959 72 283 0.0 0.0 0.00 0.00 0.00 47 1011.1
20260510134458 72 261 0.0 0.0 0.00 0.00 0.00 51 1011.2
20260510133957 73 261 0.0 0.0 0.00 0.00 0.00 54 1011.2
20260510133457 72 261 0.0 0.0 0.00 0.00 0.00 51 1011.3
20260510132956 72 257 0.0 0.0 0.00 0.00 0.00 51 1011.4
20260510132455 72 274 0.0 0.0 0.00 0.00 0.00 51 1011.4
20260510131956 71 286 0.0 0.0 0.00 0.00 0.00 48 1011.5
20260510131454 71 281 0.0 0.0 0.00 0.00 0.00 49 1011.6
20260510130957 72 281 0.0 0.0 0.00 0.00 0.00 47 1011.6
20260510130454 72 281 0.0 0.0 0.00 0.00 0.00 47 1011.7
20260510125951 72 281 0.0 0.0 0.00 0.00 0.00 45 1011.7
20260510125452 73 255 0.0 0.0 0.00 0.00 0.00 47 1011.8
20260510124957 72 255 0.0 0.0 0.00 0.00 0.00 51 1011.9
20260510124451 71 255 0.0 0.0 0.00 0.00 0.00 45 1012.0
20260510123950 71 255 0.0 0.0 0.00 0.00 0.00 48 1012.1
20260510123449 71 255 0.0 0.0 0.00 0.00 0.00 48 1012.0
20260510123436 71 255 0.0 0.0 0.00 0.00 0.00 45 1012.2
20260510122447 72 255 0.0 0.0 0.00 0.00 0.00 44 1012.2
20260510121947 72 255 0.0 0.0 0.00 0.00 0.00 49 1012.2
20260510121449 72 255 0.0 0.0 0.00 0.00 0.00 44 1012.3
20260510120945 71 255 0.0 0.0 0.00 0.00 0.00 51 1012.4
20260510120445 71 255 0.0 0.0 0.00 0.00 0.00 49 1012.5
20260510115946 70 255 0.0 0.0 0.00 0.00 0.00 46 1012.6
20260510115446 71 255 0.0 0.0 0.00 0.00 0.00 47 1012.5
20260510115424 71 255 0.0 0.0 0.00 0.00 0.00 48 1012.6
20260510114920 70 255 0.0 0.0 0.00 0.00 0.00 49 1012.7
20260510113941 70 255 0.0 0.0 0.00 0.00 0.00 50 1012.7
20260510113442 70 255 0.0 0.0 0.00 0.00 0.00 47 1012.8
20260510112944 70 296 0.0 0.0 0.00 0.00 0.00 50 1012.8
20260510112643 70 87 0.0 0.0 0.00 0.00 0.00 49 1012.9
20260510111439 69 343 0.0 0.0 0.00 0.00 0.00 55 1013.0
20260510110942 70 45 0.0 0.0 0.00 0.00 0.00 50 1013.2
20260510110440 70 104 0.0 0.0 0.00 0.00 0.00 55 1013.2
20260510105938 70 104 0.0 0.0 0.00 0.00 0.00 54 1013.0
20260510105438 70 104 0.0 0.0 0.00 0.00 0.00 58 1013.2
20260510104937 69 106 0.0 0.0 0.00 0.00 0.00 57 1013.4
20260510104434 69 104 0.0 0.0 0.00 0.00 0.00 62 1013.4
20260510103934 69 326 0.0 0.0 0.00 0.00 0.00 56 1013.6
20260510103927 69 34 0.0 0.0 0.00 0.00 0.00 54 1013.7
20260510102934 69 34 0.0 0.0 0.00 0.00 0.00 59 1013.7
20260510102433 69 34 0.0 0.0 0.00 0.00 0.00 58 1013.7
20260510101932 69 42 0.0 0.0 0.00 0.00 0.00 58 1013.8
20260510101918 69 42 0.0 0.0 0.00 0.00 0.00 62 1013.8
20260510100933 68 7 0.0 0.0 0.00 0.00 0.00 59 1013.9
20260510100435 68 92 0.0 0.0 0.00 0.00 0.00 56 1014.0
20260510095931 68 92 0.0 0.0 0.00 0.00 0.00 57 1014.0
20260510095430 68 92 0.0 0.0 0.00 0.00 0.00 58 1014.1
20260510094931 67 92 0.0 0.0 0.00 0.00 0.00 57 1014.1
20260510094434 68 92 0.0 0.0 0.00 0.00 0.00 59 1014.1
20260510093931 68 106 0.0 0.0 0.00 0.00 0.00 61 1014.1
20260510093433 67 106 0.0 0.0 0.00 0.00 0.00 62 1014.1
20260510093424 67 106 0.0 0.0 0.00 0.00 0.00 60 1014.1
20260510092430 67 27 0.0 0.0 0.00 0.00 0.00 59 1014.2
20260510091932 66 104 0.0 0.0 0.00 0.00 0.00 63 1014.3
20260510091433 66 104 0.0 0.0 0.00 0.00 0.00 59 1014.2
20260510090932 66 104 0.0 0.0 0.00 0.00 0.00 62 1014.4
20260510090913 66 106 0.0 0.0 0.00 0.00 0.00 60 1014.4
20260510085933 66 94 0.0 0.0 0.00 0.00 0.00 64 1014.5
20260510085429 66 94 0.0 0.0 0.00 0.00 0.00 61 1014.7
20260510084930 66 97 0.0 0.0 0.00 0.00 0.00 62 1014.7
20260510084431 65 92 0.0 0.0 0.00 0.00 0.00 63 1014.6
20260510083932 65 106 0.0 0.0 0.00 0.00 0.00 64 1014.5
20260510083923 65 97 0.0 0.0 0.00 0.00 0.00 63 1014.8
20260510082931 65 97 0.0 0.0 0.00 0.00 0.00 63 1014.7
20260510082429 64 97 0.0 0.0 0.00 0.00 0.00 62 1014.8
20260510081930 64 107 0.0 0.0 0.00 0.00 0.00 67 1014.8
20260510081903 64 107 0.0 0.0 0.00 0.00 0.00 67 1014.9
20260510080939 63 37 0.0 0.0 0.00 0.00 0.00 67 1014.9
20260510080429 63 37 0.0 0.0 0.00 0.00 0.00 67 1015.1
20260510075929 63 257 0.0 0.0 0.00 0.00 0.00 68 1015.1
20260510075428 62 257 0.0 0.0 0.00 0.00 0.00 70 1015.1
20260510074932 62 255 0.0 0.0 0.00 0.00 0.00 70 1015.2
20260510074431 61 257 0.0 0.0 0.00 0.00 0.00 72 1015.0
20260510074028 60 257 0.0 0.0 0.00 0.00 0.00 75 1015.2
20260510073938 61 257 0.0 0.0 0.00 0.00 0.00 72 1015.1
20260510073411 60 255 0.0 0.0 0.00 0.00 0.00 76 1015.2
20260510072429 59 255 0.0 0.0 0.00 0.00 0.00 78 1015.3
20260510071929 59 255 0.0 0.0 0.00 0.00 0.00 77 1015.4
20260510071429 58 255 0.0 0.0 0.00 0.00 0.00 78 1015.4
20260510070931 58 257 0.0 0.0 0.00 0.00 0.00 78 1015.6
20260510070429 58 255 0.0 0.0 0.00 0.00 0.00 78 1015.6
20260510065929 57 255 0.0 0.0 0.00 0.00 0.00 79 1015.7
20260510065429 56 255 0.0 0.0 0.00 0.00 0.00 80 1015.7
20260510064927 56 255 0.0 0.0 0.00 0.00 0.00 81 1015.7
20260510064909 55 255 0.0 0.0 0.00 0.00 0.00 83 1015.8
20260510063927 54 255 0.0 0.0 0.00 0.00 0.00 85 1015.8
20260510063423 54 255 0.0 0.0 0.00 0.00 0.00 86 1015.9
20260510062928 53 255 0.0 0.0 0.00 0.00 0.00 87 1016.0
20260510062427 53 255 0.0 0.0 0.00 0.00 0.00 89 1016.0
20260510061921 52 255 0.0 0.0 0.00 0.00 0.00 91 1016.0
20260510061422 52 255 0.0 0.0 0.00 0.00 0.00 92 1016.1
20260510060921 51 265 0.0 0.0 0.00 0.00 0.00 94 1016.2
20260510060420 51 255 0.0 0.0 0.00 0.00 0.00 95 1016.2
20260510060413 50 255 0.0 0.0 0.00 0.00 0.00 96 1016.2
20260510055420 49 255 0.0 0.0 0.00 0.00 0.00 96 1016.2
20260510054919 49 255 0.0 0.0 0.00 0.00 0.00 96 1016.2
20260510054420 49 255 0.0 0.0 0.00 0.00 0.00 96 1016.3
20260510053919 49 255 0.0 0.0 0.00 0.00 0.00 97 1016.3
20260510053418 49 312 0.0 0.0 0.00 0.00 0.00 97 1016.4
20260510053353 48 312 0.0 0.0 0.00 0.00 0.00 97 1016.4
20260510052416 48 312 0.0 0.0 0.00 0.00 0.00 97 1016.4
20260510051915 47 312 0.0 0.0 0.00 0.00 0.00 97 1016.3
20260510051414 47 312 0.0 0.0 0.00 0.00 0.00 97 1016.3
20260510050912 47 312 0.0 0.0 0.00 0.00 0.00 97 1016.4
20260510050415 46 312 0.0 0.0 0.00 0.00 0.00 97 1016.4
20260510050351 45 312 0.0 0.0 0.00 0.00 0.00 97 1016.5
20260510045412 45 312 0.0 0.0 0.00 0.00 0.00 97 1016.6
20260510044911 45 312 0.0 0.0 0.00 0.00 0.00 97 1016.6
20260510044412 44 312 0.0 0.0 0.00 0.00 0.00 97 1016.6
20260510043911 44 312 0.0 0.0 0.00 0.00 0.00 97 1016.6
20260510043412 44 312 0.0 0.0 0.00 0.00 0.00 97 1016.5
20260510042913 44 312 0.0 0.0 0.00 0.00 0.00 97 1016.6
20260510042414 43 312 0.0 0.0 0.00 0.00 0.00 97 1016.8
20260510041911 43 312 0.0 0.0 0.00 0.00 0.00 97 1016.9
20260510041411 43 312 0.0 0.0 0.00 0.00 0.00 97 1017.0
20260510041349 43 312 0.0 0.0 0.00 0.00 0.00 97 1017.0
20260510040617 42 312 0.0 0.0 0.00 0.00 0.00 97 1016.9
20260510035415 42 312 0.0 0.0 0.00 0.00 0.00 97 1016.9
20260510034917 42 312 0.0 0.0 0.00 0.00 0.00 97 1016.8
20260510034439 42 312 0.0 0.0 0.00 0.00 0.00 97 1016.6
20260510034420 42 312 0.0 0.0 0.00 0.00 0.00 97 1016.7
20260510033410 42 312 0.0 0.0 0.00 0.00 0.00 97 1016.8
20260510032909 42 312 0.0 0.0 0.00 0.00 0.00 97 1016.8
20260510032843 42 312 0.0 0.0 0.00 0.00 0.00 97 1016.8
20260510032404 42 312 0.0 0.0 0.00 0.00 0.00 97 1016.8
20260510031408 43 312 0.0 0.0 0.00 0.00 0.00 97 1016.8
20260510030907 42 312 0.0 0.0 0.00 0.00 0.00 97 1016.8
20260510030432 43 312 0.0 0.0 0.00 0.00 0.00 97 1016.9
20260510030408 43 312 0.0 0.0 0.00 0.00 0.00 97 1016.8
20260510025406 43 312 0.0 0.0 0.00 0.00 0.00 97 1016.8
20260510024906 43 312 0.0 0.0 0.00 0.00 0.00 97 1016.7
20260510024403 43 312 0.0 0.0 0.00 0.00 0.00 97 1016.7
20260510023904 43 312 0.0 0.0 0.00 0.00 0.00 97 1016.9
20260510023404 43 312 0.0 0.0 0.00 0.00 0.00 97 1016.9
20260510023326 43 312 0.0 0.0 0.00 0.00 0.00 97 1016.9
20260510022405 43 312 0.0 0.0 0.00 0.00 0.00 96 1017.0
20260510021901 43 312 0.0 0.0 0.00 0.00 0.00 96 1017.2
20260510021848 43 312 0.0 0.0 0.00 0.00 0.00 96 1017.3
20260510020903 43 312 0.0 0.0 0.00 0.00 0.00 96 1017.4
20260510020403 43 312 0.0 0.0 0.00 0.00 0.00 96 1017.5
20260510015902 43 312 0.0 0.0 0.00 0.00 0.00 96 1017.4
20260510015404 43 312 0.0 0.0 0.00 0.00 0.00 97 1017.6
20260510014902 44 312 0.0 0.0 0.00 0.00 0.00 97 1017.6
20260510014402 43 312 0.0 0.0 0.00 0.00 0.00 96 1017.7
20260510014341 43 312 0.0 0.0 0.00 0.00 0.00 97 1017.6
20260510013404 43 312 0.0 0.0 0.00 0.00 0.00 96 1017.7
20260510012902 43 312 0.0 0.0 0.00 0.00 0.00 96 1017.8
20260510012402 42 312 0.0 0.0 0.00 0.00 0.00 96 1017.7
20260510011902 42 312 0.0 0.0 0.00 0.00 0.00 96 1017.8
20260510011401 42 312 0.0 0.0 0.00 0.00 0.00 96 1017.8
20260510010902 42 312 0.0 0.0 0.00 0.00 0.00 96 1017.9
20260510010406 42 312 0.0 0.0 0.00 0.00 0.00 96 1017.9
20260510005904 42 312 0.0 0.0 0.00 0.00 0.00 96 1017.9
20260510005405 42 312 0.0 0.0 0.00 0.00 0.00 96 1017.9
20260510005057 42 312 0.0 0.0 0.00 0.00 0.00 96 1018.0
20260510003904 42 312 0.0 0.0 0.00 0.00 0.00 96 1018.3
20260510003403 42 312 0.0 0.0 0.00 0.00 0.00 96 1018.3
20260510002901 42 312 0.0 0.0 0.00 0.00 0.00 96 1018.4
20260510002405 42 312 0.0 0.0 0.00 0.00 0.00 96 1018.4
20260510001904 42 312 0.0 0.0 0.00 0.00 0.00 96 1018.5
20260510001403 42 312 0.0 0.0 0.00 0.00 0.00 96 1018.6
20260510000903 42 312 0.0 0.0 0.00 0.00 0.00 96 1018.6
20260510000519 42 312 0.0 0.0 0.00 0.00 0.00 96 1018.7
20260510000403 42 312 0.0 0.0 0.00 0.00 0.00 96 1018.6
20260509235400 42 312 0.0 0.0 0.00 0.00 0.00 96 1018.8
20260509234902 42 312 0.0 0.0 0.00 0.00 0.00 96 1018.8
20260509234557 42 312 0.0 0.0 0.00 0.00 0.00 96 1019.0
20260509233400 42 312 0.0 0.0 0.00 0.00 0.00 96 1018.8
20260509232858 42 312 0.0 0.0 0.00 0.00 0.00 96 1018.9
20260509232355 42 312 0.0 0.0 0.00 0.00 0.00 96 1018.9
20260509231906 42 312 0.0 0.0 0.00 0.00 0.00 96 1018.8
20260509231351 42 312 0.0 0.0 0.00 0.00 0.00 96 1018.9
20260509231309 42 312 0.0 0.0 0.00 0.00 0.00 96 1018.9
20260509230354 42 312 0.0 0.0 0.00 0.00 0.00 96 1019.0
20260509225850 42 312 0.0 0.0 0.00 0.00 0.00 96 1019.0
20260509225822 43 312 0.0 0.0 0.00 0.00 0.00 96 1019.1
20260509224849 43 312 0.0 0.0 0.00 0.00 0.00 95 1019.2
20260509224341 43 312 0.0 0.0 0.00 0.00 0.00 95 1019.1
20260509223843 43 312 0.0 0.0 0.00 0.00 0.00 95 1019.1
20260509223343 43 312 0.0 0.0 0.00 0.00 0.00 95 1019.1
20260509223048 43 312 0.0 0.0 0.00 0.00 0.00 95 1019.1
20260509221839 43 312 0.0 0.0 0.00 0.00 0.00 95 1019.2
20260509221750 43 312 0.0 0.0 0.00 0.00 0.00 95 1019.2
20260509220839 43 312 0.0 0.0 0.00 0.00 0.00 95 1019.1
20260509220353 44 312 0.0 0.0 0.00 0.00 0.00 95 1019.2
20260509215839 44 312 0.0 0.0 0.00 0.00 0.00 95 1019.2
20260509215339 44 312 0.0 0.0 0.00 0.00 0.00 95 1019.3
20260509214837 44 312 0.0 0.0 0.00 0.00 0.00 95 1019.3
20260509214831 44 312 0.0 0.0 0.00 0.00 0.00 95 1019.3